Location: Bambrugge
(50.9212°N, 3.9299°E)
Time: 05:10:24
(UTC+00:00)

SL-16 R/B - Pass Details

Date: 12 August 2024
Orbit: 842 x 845 km, 71.0° (Epoch: 16 September)

Event Time Altitude Azimuth Distance (km) Brightness Sun altitude
Exits shadow 02:10:18 - 275° (W) 2,872 4.7 -17.4°
Reaches altitude 10° 02:11:50 10° 286° (WNW) 2,470 4.4 -17.2°
Maximum altitude 02:15:38 18° 328° (NNW) 1,966 4.4 -16.9°
Drops below altitude 10° 02:19:26 10° 11° (N) 2,477 5.6 -16.5°
Sets 02:22:45 0° 30° (NNE) 3,416 7.1 -16.2°
